Location: Kergonan
(48.2337°N, 4.5518°W)
Time: 05:13:48
(UTC+00:00)

CZ-4B R/B - Pass Details

Date: 18 January 2020
Orbit: 808 x 882 km, 99.1° (Epoch: 25 February)

Event Time Altitude Azimuth Distance (km) Brightness Sun altitude
Rises 06:46:25 0° 11° (N) 3,479 6.3 -12.4°
Reaches altitude 10° 06:48:53 10° 7° (N) 2,529 5.6 -12.0°
Maximum altitude 06:54:19 52° 293° (WNW) 1,058 3.4 -11.1°
Drops below altitude 10° 06:59:37 10° 218° (SW) 2,468 5.5 -10.3°
Sets 07:02:00 0° 213° (SSW) 3,388 6.2 -9.9°
